ONEWEB-0563, 55800

Orbit data source: Space-Track

ONEWEB-0563, 55800 is a payload satellite owned by One Web (NAA) (UK) in LEO that was launched on Thu, 09 Mar 2023 UTC via an FALCON 9 launch vehicle from the Air Force Eastern Test Range (AFETR). Payload-class satellites include a variety of spacecraft equipped with specific instruments for various scientific and technological missions. These include communications satellites like Starlink; space stations such as the ISS; scientific satellites like the Hubble; Earth observation satellites from companies like Planet Labs, Umbra, and HawkEye 360; GPS; miniature CubeSats for education and research; and military/defense satellites.

Loading next visibility...
Identifier
55800, 2023-029E
Orbit
LEO
Country
Flag of UKUK
Related business
Manufacturer
One Web
Mission
Operational Commercial Communications
Bus & Motor
ARROW, Unknown motor
Mass
148 kg wet, ~140 kg dry
Launch date (UTC)
2023-03-09 (3 years ago)
Launch vehicle
FALCON 9
Launch site
Air Force Eastern Test Range (AFETR)
Object type
Payload
Rocket body
Debris
Shape & HBR
Trap Box + 2 Pan, 6.7 m
Radar Cross Section
3.464 m², Large (>1 m²)

Expand to show TLE details & history
Last TLE update: 2 days ago

TLE from 2 days ago
0 ONEWEB-0563
1 55800U 23029E   26171.32390566  .00000071  00000-0  14362-3 0  9992
2 55800  87.9186 273.8549 0001782 104.1160 256.0171 13.20772311161555
Epoch: 2026-06-20T07:46Z
TLE epoch observation values (Epoch: 2026-06-20T07:46:25.449Z)
Latitude
-0.00004°
Longitude
-111.29131°
Altitude
1,185 km
Speed
7.261 km/s
True Right ascension
18h 15m 25s
True Declination
0° 00' 00"
Sunlit
Object was in full shadow at epoch
Visualization orbit readout
Latitude
Unknown
Longitude
Unknown
Altitude
Unknown
Speed
Unknown
Apparent Right ascension
Unknown
Apparent Declination
Unknown
Sunlit
N/A
Visualization observer readout
Local Sidereal Time
21:42:46
Azimuth
Unknown
Elevation
Unknown
Doppler factor
Unknown
Orbital elements
Apogee altitude
1,180.222 km
Perigee altitude
1,177.529 km
Semi-major axis
7,557.013 km
Eccentricity
0.00018
Inclination
87.9186°
RAAN
273.8549°
Arg. of periapsis
104.116°
True anomaly
255.99729°
Mean anomaly
256.0171°
Eccentric anomaly
256.00719°
Mean motion
3.30383 °/min
Orbital period
108.96 mins
BSTAR
0.00014362
Loading maneuver chart data...
Computing Atmospheric mass density...
Loading historical data...
Loading historical data...
Loading historical data...
Loading historical data...
Loading historical data...
Loading historical data...
Loading historical data...

Documentation

Showing up to 5 results
|